Temperature
24 23 23 23 24 25 25 24 24 24 25 24 23 23 22 22 22 22 22 22 22 22 22 22 22 22 21 21 21 20 20 20 20 19 19 19 19 19 19 18 18 18 18 18
23 23 24 24 24 24 25 24 24 24 24 24 23 23 23 22 22 22 22 22 22 22 22 22 22 22 21 21 21 21 20 20 20 20 19 19 19 19 19 19 18 18 18 18
24 24 25 25 25 25 24 24 24 24 24 23 23 23 22 22 22 22 22 22 23 23 23 22 22 22 21 21 21 21 21 20 20 20 19 19 19 19 19 18 18 18 18 18
24 24 25 25 25 25 24 25 25 24 23 21 23 22 22 21 21 21 22 22 23 23 23 23 22 22 22 22 21 21 21 21 20 20 20 19 19 19 19 19 19 18 18 18
24 25 25 25 25 25 25 25 24 23 22 21 21 21 21 21 21 21 21 22 23 23 23 23 23 23 22 22 22 21 21 21 20 20 20 20 19 19 19 19 19 18 18 18
24 25 25 25 25 25 25 24 22 20 20 21 21 21 21 20 21 21 22 22 23 23 23 23 23 22 22 22 22 22 21 21 21 20 20 20 20 19 19 19 19 18 18 18
24 24 25 25 25 24 24 22 21 21 20 20 20 21 20 22 21 22 22 23 23 23 23 23 23 22 22 22 22 21 21 21 21 20 20 20 20 19 19 19 19 18 18 18
23 23 24 24 24 24 23 22 21 22 21 20 20 20 21 22 22 23 23 23 23 23 23 23 23 23 23 23 22 22 22 21 21 21 20 20 20 19 19 19 19 19 18 18
21 22 24 24 25 24 23 21 21 20 20 20 20 20 21 22 22 22 22 22 23 23 23 23 23 23 23 23 22 22 22 22 21 21 20 20 20 19 19 19 19 18 18 18
22 23 23 24 24 24 23 20 18 19 20 20 21 21 21 22 22 21 21 21 23 23 23 23 23 23 23 23 22 22 22 22 21 21 20 20 20 20 19 19 19 19 18 18
21 22 23 23 24 23 22 21 19 17 18 19 20 21 22 21 21 21 21 22 23 23 23 23 23 23 23 23 22 22 22 21 21 21 20 20 20 20 19 19 19 19 18 18
20 19 20 21 22 22 22 21 18 20 19 17 19 21 22 21 21 21 21 22 23 23 24 23 23 23 22 22 22 22 22 21 21 20 20 20 20 19 19 19 19 18 18 18
20 19 20 21 21 22 22 21 19 17 17 16 19 21 21 20 20 21 22 23 23 23 23 23 23 23 23 22 22 22 22 22 21 21 20 20 20 19 19 19 19 18 18 18
19 18 19 21 21 21 21 21 19 18 18 17 18 20 21 20 20 20 21 22 23 23 23 23 23 23 23 22 22 22 22 21 21 21 20 20 20 20 19 19 19 18 18 18
19 19 20 20 20 21 21 21 20 20 19 19 20 19 20 20 19 20 21 22 22 22 22 22 23 23 23 22 22 22 21 21 21 21 20 20 20 20 19 19 18 18 18 17
16 19 20 20 20 20 21 21 21 20 20 19 20 20 19 20 20 20 21 21 21 22 22 22 23 22 22 22 22 21 21 21 21 21 20 20 20 19 19 19 18 18 18 17
16 17 18 18 19 20 20 20 20 20 19 19 20 20 19 18 18 19 20 21 21 22 22 22 22 22 22 22 22 22 21 21 21 21 20 20 20 20 19 19 18 18 18 17
15 15 15 16 19 20 19 20 20 19 19 19 19 18 18 18 20 20 21 21 22 22 22 22 22 22 22 22 21 21 21 20 20 20 20 20 20 19 19 19 18 18 18 17
13 14 14 15 17 18 19 19 19 19 19 18 18 18 18 18 19 20 21 21 22 22 22 22 22 22 22 21 21 21 20 20 20 20 20 20 19 19 19 18 18 18 17 17
13 13 14 14 17 17 18 19 19 19 18 18 17 17 17 17 17 18 21 21 21 21 21 21 22 22 22 21 21 20 20 20 20 20 20 19 19 19 19 18 18 18 17 17
15 14 14 14 16 16 17 17 18 19 18 18 17 17 17 17 18 19 20 20 20 20 21 21 21 21 21 21 20 20 20 20 20 20 19 19 19 19 18 18 18 17 17 17
14 14 13 13 15 16 16 17 16 16 17 17 17 18 18 18 18 19 19 20 20 20 20 20 20 20 21 20 20 20 20 20 19 19 19 18 18 18 18 18 17 17 17 17
13 13 13 13 14 15 16 16 17 17 17 17 17 17 18 18 18 18 19 19 20 20 20 20 20 20 20 20 20 19 19 19 19 19 18 18 18 18 17 17 17 17 17 16
13 12 12 12 13 15 16 17 17 17 17 17 17 17 18 17 18 18 18 19 19 19 19 19 19 19 19 19 19 19 19 19 19 18 18 18 18 17 17 17 17 16 16 16
12 12 12 12 13 14 16 16 17 17 17 17 17 17 17 17 17 18 18 19 19 19 19 19 19 18 18 18 18 18 18 18 18 18 18 18 17 17 17 17 16 16 16 16
11 12 12 13 14 13 15 16 16 16 16 16 16 17 17 17 17 18 18 18 18 18 18 18 18 18 18 18 18 18 18 18 18 17 17 17 17 17 17 16 16 16 16 16
Wind_Speed
2 4 2 6 7 5 3 3 4 5 2 3 4 5 6 8 10 10 10 10 10 11 9 7 8 8 7 7 7 7 6 6 5 3 3 3 2 1 1 1 2 4 4 4
4 4 7 5 4 4 3 2 4 4 1 2 2 4 4 7 10 10 12 12 12 9 7 8 8 8 9 8 8 8 7 7 6 4 3 3 3 2 1 1 2 3 4 4
6 6 3 2 1 1 3 5 4 3 2 3 1 4 3 4 5 6 8 9 10 12 12 11 10 10 9 9 10 9 8 7 7 6 4 3 3 2 1 1 1 1 3 4
5 5 2 1 3 3 5 5 4 2 2 2 1 3 6 4 5 7 9 9 11 12 11 11 11 11 11 11 10 9 8 7 7 7 7 7 5 4 3 2 2 1 2 3
5 3 2 4 5 4 5 0 3 2 3 1 2 1 7 2 5 8 9 10 11 11 12 12 13 13 11 10 10 9 8 8 7 7 8 7 5 4 3 2 2 2 1 2
6 3 4 5 3 3 3 5 6 5 5 1 3 3 6 4 7 6 8 9 9 10 11 12 11 9 9 8 8 8 9 8 8 8 8 8 8 6 5 4 3 2 1 1
5 4 3 2 1 2 5 6 4 4 3 5 3 3 8 7 6 7 7 9 9 9 10 11 11 12 11 11 10 9 9 8 8 8 8 8 8 8 7 6 5 4 2 2
3 7 4 3 6 5 4 8 7 5 5 5 2 5 7 6 5 5 5 5 7 8 10 11 12 12 13 13 12 10 10 9 8 8 8 7 7 6 5 6 5 5 4 4
7 7 5 3 4 7 5 4 6 6 2 1 5 6 8 3 3 3 3 3 6 8 9 10 11 11 12 12 12 12 11 10 9 9 8 7 7 7 6 5 5 4 3 3
9 5 6 3 3 2 5 8 6 5 5 4 5 5 5 6 6 4 4 5 6 7 8 9 10 11 11 11 11 11 11 11 10 9 8 8 7 7 6 5 5 4 4 3
6 6 5 2 3 4 3 4 5 5 5 6 4 7 7 9 8 7 8 7 7 7 7 8 8 8 8 8 9 10 10 9 8 8 7 7 7 7 6 6 6 6 5 5
4 5 3 6 5 2 4 6 7 5 4 5 5 8 6 6 6 6 7 6 6 6 6 7 7 6 7 8 9 10 10 10 9 9 8 7 7 7 7 7 6 6 6 6
5 6 1 6 5 2 1 3 5 6 5 5 5 8 3 2 3 4 5 6 5 5 5 5 5 6 7 8 8 9 9 10 9 9 9 7 7 8 8 8 7 6 6 6
5 5 6 8 7 4 3 3 4 6 5 6 8 8 7 5 5 4 5 5 4 4 4 5 6 6 6 7 7 8 8 8 9 9 9 9 9 9 8 7 7 6 6 7
4 3 4 5 5 3 4 5 5 6 8 9 9 9 10 8 6 5 5 4 4 4 4 5 5 6 6 6 7 8 8 8 9 9 9 9 8 7 7 7 7 6 7 8
3 3 2 2 2 2 3 4 5 5 5 6 5 8 7 5 2 3 4 4 5 5 6 5 5 5 6 7 8 8 8 8 8 9 8 8 7 7 7 7 7 6 6 6
1 4 3 3 4 2 4 5 5 4 4 6 7 8 4 2 3 5 5 6 6 6 5 5 5 5 6 7 8 9 8 7 8 8 7 7 7 7 7 7 7 7 7 6
5 4 3 2 1 5 7 3 2 3 2 3 3 3 3 5 4 3 4 5 6 5 5 5 4 4 4 5 5 5 6 7 7 6 6 6 7 7 6 6 7 6 5 6
5 7 4 4 4 5 6 3 1 2 3 1 1 2 3 3 3 3 2 3 5 5 5 5 5 5 4 5 6 6 7 7 6 6 6 7 7 7 7 7 7 5 5 5
5 4 5 4 4 6 7 5 3 2 3 2 1 1 2 2 1 4 3 2 2 2 2 3 3 3 4 4 5 7 7 7 7 7 7 7 7 7 8 7 6 4 5 5
3 3 3 4 5 6 6 6 1 3 5 4 3 2 1 2 4 4 4 2 1 2 3 3 4 3 4 4 6 6 5 7 7 6 5 5 6 6 6 5 5 5 5 5
4 3 3 4 4 7 4 2 2 4 4 3 3 2 2 3 4 3 3 2 1 1 2 3 3 3 2 4 6 5 5 6 5 5 5 5 5 5 5 5 4 5 5 5
4 6 5 6 6 4 2 2 3 2 2 3 3 4 2 3 4 4 3 3 2 1 2 2 3 3 2 2 5 5 4 3 4 5 5 5 5 5 5 6 5 4 4 4
3 1 2 2 5 5 4 3 2 1 2 3 3 3 2 3 3 3 3 3 2 1 1 2 3 2 1 1 2 3 3 3 4 5 5 5 5 4 4 4 4 5 5 5
5 2 1 3 5 5 5 3 3 4 4 4 5 4 3 3 3 3 3 3 2 2 1 2 3 3 3 2 2 1 2 3 4 4 4 5 5 5 5 5 5 6 6 7
4 5 5 6 6 4 6 6 4 4 5 5 5 6 5 3 3 3 3 3 2 2 2 2 3 3 3 3 2 2 2 3 4 4 4 4 4 5 5 4 3 3 4 5
Wind_Direction
83 83 212 224 206 203 199 217 261 264 222 164 216 241 233 192 193 202 203 204 208 212 209 192 186 179 172 173 176 178 176 170 154 144 149 148 162 150 119 138 151 151 146 139
45 260 237 223 205 198 206 239 270 297 317 159 221 256 246 198 205 207 207 206 208 204 191 187 182 177 178 179 180 179 183 177 172 170 162 153 143 147 153 123 118 141 144 145
200 240 216 183 213 200 252 211 226 239 352 44 74 315 264 229 218 224 219 210 205 201 194 189 188 189 181 185 187 187 185 179 176 163 138 120 94 82 93 116 134 145 152 154
230 254 206 226 247 183 266 242 203 188 94 316 79 282 287 250 230 228 229 216 209 205 194 188 189 192 192 194 189 182 180 178 175 164 161 161 165 172 187 177 168 143 146 152
240 225 204 238 242 191 226 143 112 117 126 35 15 178 289 310 249 243 232 224 214 205 195 190 193 194 195 191 187 183 179 181 177 175 175 171 170 171 155 148 146 145 135 143
244 238 204 222 250 176 156 70 59 50 72 335 255 178 279 247 233 244 230 224 215 198 192 190 189 184 186 184 185 181 181 187 183 180 181 179 175 168 159 163 171 175 165 154
307 301 258 190 347 18 94 89 34 0 6 252 261 198 249 253 234 227 227 222 214 196 188 186 183 184 186 186 188 186 185 191 189 184 189 190 184 177 179 180 185 181 179 190
219 283 254 198 185 197 176 143 161 203 223 267 295 232 252 256 251 243 238 221 203 191 187 188 190 191 191 191 190 188 188 190 188 190 195 191 184 183 187 183 182 187 194 197
185 250 279 240 204 155 149 171 163 142 165 240 272 278 297 272 268 253 236 213 208 198 192 191 187 189 191 191 192 191 190 191 192 191 185 186 185 183 186 183 181 184 188 185
165 228 281 296 81 62 142 146 107 126 162 234 274 266 249 259 254 251 225 217 220 203 190 189 188 190 191 191 191 189 192 195 193 187 188 193 185 182 180 175 181 185 183 169
150 181 287 9 162 196 118 115 118 127 160 169 235 263 227 225 225 219 221 216 212 202 193 191 192 193 186 181 185 189 191 190 185 184 184 185 183 182 177 182 191 189 182 173
147 137 238 262 258 210 171 168 147 157 215 186 190 257 263 233 231 224 222 215 209 198 189 190 187 178 178 182 185 188 188 187 186 182 181 188 184 181 186 192 196 189 187 184
133 120 70 337 340 8 112 164 156 133 129 164 183 257 295 295 252 236 223 217 208 195 181 181 177 177 180 184 184 183 185 187 181 175 178 184 189 190 196 199 197 191 187 183
123 126 170 202 221 220 237 214 162 139 161 199 219 242 279 274 256 248 233 225 211 196 187 182 183 185 182 180 181 181 186 181 175 174 180 188 197 201 202 199 195 192 187 187
104 155 207 229 238 213 222 225 197 196 194 196 228 227 248 248 238 238 224 209 194 194 195 197 194 190 182 184 183 180 180 178 176 174 184 196 199 200 196 193 192 189 191 196
73 150 165 281 266 239 258 257 221 227 216 223 237 252 261 267 244 248 227 200 203 211 205 203 193 186 187 191 187 182 181 177 171 173 188 193 185 185 190 191 187 185 188 187
77 136 137 252 297 2 271 246 214 212 221 196 216 239 263 269 243 228 220 210 214 214 208 205 199 192 193 194 187 183 180 171 170 180 187 186 179 185 192 190 183 189 191 185
155 136 145 170 93 227 240 270 208 187 246 242 241 259 246 240 249 242 222 211 220 213 202 203 197 196 192 185 180 169 162 170 177 181 184 184 183 188 187 185 190 193 186 184
165 147 137 142 189 264 290 287 214 205 282 310 250 309 323 341 23 338 275 227 222 213 203 201 199 185 167 166 168 159 166 172 176 189 194 193 188 185 184 188 193 192 184 187
70 108 128 144 172 223 247 288 297 136 265 303 333 304 326 44 66 275 296 297 267 204 181 180 177 148 144 159 157 159 171 176 191 200 201 195 186 183 188 191 187 183 183 194
38 56 134 173 209 251 268 299 16 164 249 301 285 273 250 215 229 269 306 301 253 190 160 153 147 139 156 152 148 154 168 197 206 196 188 184 182 185 181 177 176 176 180 182
182 170 188 158 190 249 294 53 154 231 284 299 297 289 274 272 291 309 312 304 329 144 133 140 141 145 143 147 154 165 197 210 189 174 175 179 180 184 175 169 176 177 175 177
202 193 190 191 213 249 272 215 235 218 277 298 303 312 307 306 307 305 299 297 308 205 158 145 143 138 130 154 160 179 210 194 173 171 176 179 175 178 170 171 176 174 173 182
275 165 160 254 272 278 290 286 297 290 289 298 305 310 317 295 288 291 298 304 313 306 165 136 125 135 173 202 173 189 189 173 176 179 182 181 178 175 170 172 177 182 188 194
242 197 185 257 278 310 308 282 288 315 328 332 330 322 297 278 279 272 274 262 247 243 208 156 166 189 203 201 190 200 190 171 180 183 184 184 182 178 183 188 189 193 201 198
218 197 197 232 234 223 262 277 296 302 305 308 318 325 319 281 268 274 265 248 226 213 194 183 192 200 208 192 192 208 206 189 178 182 188 191 189 187 189 192 200 203 203 208
Height
1497 1503 1508 1506 1503 1504 1507 1511 1513 1507 1500 1504 1508 1507 1504 1503 1506 1507 1509 1511 1512 1514 1517 1520 1522 1525 1527 1530 1531 1533 1535 1536 1538 1539 1540 1542 1543 1544 1545 1546 1547 1548 1549 1549
1502 1505 1498 1497 1498 1502 1505 1511 1511 1506 1500 1504 1508 1507 1502 1502 1503 1503 1505 1507 1509 1512 1515 1518 1520 1523 1525 1527 1530 1532 1534 1535 1537 1539 1540 1542 1543 1544 1545 1546 1547 1548 1549 1549
1502 1498 1493 1496 1499 1503 1505 1509 1509 1509 1504 1504 1508 1511 1505 1501 1502 1502 1503 1504 1506 1508 1511 1514 1517 1520 1523 1525 1528 1530 1532 1534 1536 1538 1539 1541 1542 1543 1544 1545 1546 1548 1548 1549
1498 1493 1493 1496 1498 1500 1507 1498 1500 1504 1512 1520 1514 1528 1509 1503 1502 1500 1500 1501 1502 1504 1507 1511 1514 1517 1520 1523 1526 1528 1531 1533 1535 1536 1538 1539 1540 1542 1543 1544 1546 1547 1548 1549
1496 1492 1493 1496 1495 1494 1498 1494 1499 1504 1513 1521 1519 1527 1517 1505 1504 1499 1496 1496 1497 1500 1503 1507 1510 1514 1517 1520 1523 1526 1529 1531 1533 1534 1536 1538 1539 1541 1543 1544 1545 1546 1547 1548
1491 1488 1489 1490 1488 1490 1492 1499 1505 1513 1521 1533 1522 1527 1522 1508 1500 1494 1491 1492 1493 1495 1499 1503 1507 1511 1514 1517 1520 1523 1526 1528 1531 1533 1535 1536 1538 1540 1541 1543 1544 1545 1546 1547
1496 1490 1487 1486 1491 1492 1496 1512 1531 1534 1541 1537 1522 1523 1517 1495 1490 1488 1487 1487 1489 1492 1495 1499 1503 1506 1510 1513 1516 1519 1522 1525 1528 1531 1533 1535 1537 1538 1540 1541 1543 1544 1545 1546
1506 1505 1488 1485 1489 1495 1498 1508 1530 1541 1543 1535 1523 1523 1504 1488 1485 1484 1484 1484 1486 1488 1492 1495 1498 1502 1506 1509 1512 1515 1518 1521 1525 1528 1530 1533 1535 1537 1538 1540 1541 1542 1543 1544
1506 1504 1485 1482 1482 1487 1498 1506 1506 1524 1530 1535 1528 1514 1497 1486 1484 1483 1483 1483 1484 1485 1488 1491 1494 1498 1501 1505 1508 1512 1515 1518 1521 1524 1527 1530 1532 1534 1536 1537 1539 1540 1541 1542
1491 1500 1488 1483 1482 1485 1489 1499 1514 1525 1537 1541 1528 1518 1509 1491 1486 1483 1482 1482 1482 1484 1486 1488 1491 1494 1498 1501 1505 1509 1512 1515 1518 1521 1524 1527 1529 1531 1533 1535 1536 1538 1539 1540
1486 1498 1494 1488 1489 1492 1495 1501 1509 1521 1524 1535 1537 1520 1488 1484 1481 1480 1479 1479 1480 1481 1484 1486 1489 1492 1495 1498 1502 1505 1508 1512 1515 1518 1521 1523 1526 1528 1530 1532 1534 1535 1537 1538
1486 1497 1504 1494 1484 1483 1487 1494 1505 1517 1523 1526 1527 1513 1477 1477 1477 1476 1476 1476 1478 1479 1482 1484 1487 1490 1493 1495 1498 1502 1505 1508 1511 1514 1517 1520 1522 1524 1527 1529 1531 1532 1534 1535
1485 1497 1510 1505 1498 1489 1489 1491 1496 1505 1516 1526 1525 1507 1476 1475 1475 1475 1475 1475 1476 1478 1480 1483 1485 1487 1490 1493 1495 1497 1501 1504 1508 1511 1514 1517 1519 1521 1523 1525 1528 1529 1530 1531
1480 1495 1503 1508 1501 1492 1491 1490 1493 1501 1513 1518 1511 1497 1482 1476 1475 1474 1474 1475 1476 1477 1479 1480 1483 1485 1487 1490 1492 1495 1498 1501 1504 1507 1510 1512 1515 1517 1520 1522 1524 1526 1527 1528
1480 1492 1491 1490 1486 1486 1486 1486 1489 1493 1496 1502 1495 1491 1480 1474 1473 1472 1472 1473 1474 1476 1477 1479 1481 1483 1485 1488 1490 1492 1495 1498 1501 1504 1506 1508 1511 1514 1517 1519 1521 1522 1524 1525
1483 1489 1489 1489 1485 1485 1486 1484 1484 1486 1487 1488 1486 1484 1474 1472 1471 1472 1471 1472 1473 1474 1476 1478 1479 1481 1483 1485 1487 1489 1492 1495 1498 1500 1503 1506 1507 1510 1513 1515 1517 1519 1520 1522
1487 1490 1495 1498 1491 1487 1493 1484 1482 1483 1480 1481 1484 1478 1472 1472 1470 1470 1470 1470 1471 1472 1474 1476 1477 1478 1481 1483 1484 1486 1489 1492 1495 1497 1500 1502 1503 1506 1509 1512 1513 1515 1517 1518
1487 1492 1499 1501 1496 1502 1488 1475 1475 1477 1476 1475 1474 1472 1471 1469 1468 1468 1468 1469 1469 1470 1472 1474 1475 1477 1479 1481 1483 1484 1488 1491 1493 1495 1497 1499 1501 1503 1506 1508 1510 1511 1513 1515
1481 1489 1499 1505 1504 1497 1484 1475 1475 1477 1478 1473 1472 1471 1470 1468 1467 1467 1467 1468 1468 1469 1471 1472 1474 1476 1477 1479 1482 1484 1487 1489 1491 1492 1493 1496 1498 1500 1502 1504 1506 1508 1510 1511
1483 1485 1496 1502 1500 1501 1485 1473 1471 1475 1480 1473 1471 1471 1470 1469 1473 1469 1466 1466 1467 1468 1469 1471 1473 1474 1475 1478 1480 1483 1484 1486 1487 1489 1492 1494 1495 1497 1498 1500 1502 1504 1506 1507
1488 1492 1496 1499 1498 1490 1477 1472 1471 1484 1481 1472 1471 1469 1469 1469 1470 1468 1466 1465 1466 1467 1468 1470 1471 1472 1474 1476 1479 1480 1482 1483 1485 1487 1489 1491 1492 1494 1496 1498 1500 1501 1503 1504
1489 1493 1496 1498 1498 1492 1474 1473 1477 1477 1472 1471 1470 1469 1468 1467 1466 1465 1465 1464 1464 1465 1466 1467 1469 1471 1473 1475 1477 1478 1480 1481 1483 1485 1487 1488 1490 1492 1493 1495 1497 1499 1500 1501
1486 1485 1486 1487 1486 1476 1472 1472 1472 1472 1471 1470 1468 1468 1467 1465 1464 1464 1464 1464 1463 1464 1464 1466 1467 1469 1471 1473 1474 1476 1478 1479 1481 1483 1484 1485 1487 1489 1490 1492 1494 1495 1496 1498
1481 1479 1481 1481 1476 1473 1471 1470 1470 1469 1469 1468 1467 1466 1465 1464 1463 1463 1462 1462 1462 1462 1463 1465 1466 1467 1468 1471 1472 1474 1475 1476 1478 1479 1480 1482 1483 1485 1487 1488 1490 1491 1492 1494
1479 1478 1479 1479 1474 1471 1469 1469 1468 1467 1467 1466 1465 1464 1463 1462 1461 1461 1460 1461 1461 1461 1462 1463 1464 1465 1467 1469 1469 1471 1472 1474 1475 1476 1477 1479 1480 1481 1483 1484 1486 1487 1489 1490
1475 1476 1477 1475 1470 1470 1468 1467 1467 1466 1464 1464 1462 1461 1460 1460 1458 1458 1458 1458 1459 1459 1460 1462 1463 1464 1465 1466 1467 1468 1470 1471 1471 1472 1474 1475 1476 1477 1478 1480 1482 1484 1486 1487